Orbital Elements at Epoch 2459000.5 (2020-May-31.0) TDB
Reference: JPL 19 (heliocentric ecliptic J2000)
Element | Value | Uncertainty (1-sigma) | Units |
e | .2399409587809565 | 7.2032e-08 | |
a | 2.627427550178876 | 1.8671e-08 | au |
q | 1.997000064661457 | 1.8451e-07 | au |
i | 7.401373143014997 | 6.0354e-06 | deg |
node | 320.9714273671287 | 4.9656e-05 | deg |
peri | 184.5385759099063 | 5.1451e-05 | deg |
M | 122.4665234909208 | 1.3744e-05 | deg |
tp | 2458471.312667341300 (2018-Dec-18.81266734) | 5.7216e-05 | TDB |
period | 1555.587880889389 4.26 | 1.6582e-05 4.54e-08 | d yr |
n | .231423762310474 | 2.4668e-09 | deg/d |
Q | 3.257855035696295 | 2.3151e-08 | au |
|
| | Orbit Determination Parameters
Additional Information
|